Location: Austin
(30.3000°N, 97.7500°W)
Time: 07:26:28
(UTC-05:00)

Cosmos 2251 Rocket - Pass Details

Date: 11 June 2024
Orbit: 762 x 790 km, 74.0° (Epoch: 21 June)

Event Time Altitude Azimuth Distance (km) Brightness Sun altitude
Rises 21:33:06 0° 195° (SSW) 3,218 6.5 -11.8°
Reaches altitude 10° 21:35:27 10° 196° (SSW) 2,299 5.8 -12.2°
Maximum altitude 21:40:41 87° 286° (WNW) 777 3.5 -13.1°
Drops below altitude 10° 21:45:59 10° 15° (NNE) 2,330 6.3 -14.0°
Sets 21:48:23 0° 16° (NNE) 3,265 7.1 -14.4°
